Simultaneous Nadir Overpasses (SNOs) Predictions

Prediction of SNOs between AQUA and GOES-15 Satellite Orbit:

Table of predicted SNOs for the next 14.0 days since TLE Epoch: 5/11/2018
Index Date Time (AQUA) AQUA Lat,Lon GOES-15 Lat,Lon Distance(km) Time Diff (sec)
1 05/11/2018 22:41:42 -0.25,-136.35 -0.08,-135.46 101.71 80
2 05/13/2018 22:29:30 0.38,-133.40 -0.08,-135.43 232.03 80
3 05/14/2018 10:50:44 0.73,-138.55 0.06,-135.40 358.57 80
4 05/16/2018 10:38:33 0.09,-135.60 0.06,-135.36 26.09 80
5 05/18/2018 10:26:20 -0.50,-132.63 0.06,-135.32 305.78 80
6 05/18/2018 22:47:44 -0.56,-137.83 -0.05,-135.34 283.08 80
7 05/20/2018 22:35:31 0.03,-134.86 -0.05,-135.29 48.01 80
8 05/22/2018 22:23:19 0.68,-131.91 -0.06,-135.23 378.90 80
9 05/23/2018 10:44:34 0.42,-137.06 0.05,-135.19 212.22 80
10 05/25/2018 10:32:21 -0.18,-134.10 0.05,-135.14 118.31 80




NCC Satellite Simultaneous Nadir Overpasses (SNOs) Prediction Service
